Precipitable_Water
1.85 1.76 1.77 1.73 1.69 1.61 1.61 1.62 1.61 1.59 1.56 1.50 1.50 1.54 1.55 1.53 1.62 1.75 1.72 1.72 1.75 1.76 1.72 1.63 1.55 1.54 1.44 1.32 1.26 1.24 1.23 1.29 1.33 1.33 1.34 1.34 1.31 1.29 1.19 1.11 1.04 0.97 0.96 1.01 0.99 0.96 0.92 0.91 0.96 1.00 1.03 1.04 0.96 0.92 0.87 0.88 0.89 0.86 0.84 0.86 0.86 0.83 0.82 0.82 0.87 0.96 1.05 1.10 1.08 1.10 1.08 1.06 1.05 1.08 1.04 1.00 1.01 1.02 0.99 0.95 0.91 0.89 0.88 0.88 0.86
1.74 1.74 1.79 1.72 1.65 1.61 1.62 1.58 1.59 1.57 1.55 1.50 1.49 1.51 1.53 1.56 1.68 1.83 1.82 1.75 1.81 1.82 1.76 1.67 1.59 1.59 1.50 1.44 1.33 1.25 1.24 1.27 1.35 1.37 1.37 1.34 1.32 1.32 1.31 1.23 1.17 1.16 1.14 1.10 1.07 1.04 0.99 0.99 1.01 1.03 1.06 1.07 1.02 0.92 0.90 0.92 0.90 0.84 0.81 0.83 0.82 0.79 0.76 0.77 0.83 0.96 1.05 1.06 0.99 1.06 1.08 1.08 1.05 1.04 1.04 1.06 1.03 0.99 0.94 0.89 0.85 0.83 0.86 0.87 0.85
1.79 1.77 1.68 1.69 1.61 1.62 1.61 1.56 1.56 1.56 1.53 1.51 1.43 1.52 1.58 1.75 1.80 1.76 1.85 1.80 1.83 1.86 1.83 1.72 1.65 1.63 1.55 1.49 1.44 1.37 1.31 1.28 1.32 1.36 1.38 1.33 1.33 1.35 1.36 1.34 1.30 1.24 1.20 1.16 1.16 1.14 1.05 1.05 1.05 1.06 1.09 1.11 1.04 0.95 0.94 0.93 0.91 0.85 0.81 0.79 0.77 0.73 0.70 0.72 0.78 0.81 0.83 0.95 1.05 1.04 1.04 1.05 1.06 1.06 1.03 1.01 0.99 0.94 0.89 0.86 0.86 0.85 0.85 0.83 0.83
1.70 1.71 1.74 1.68 1.60 1.60 1.59 1.54 1.53 1.55 1.55 1.49 1.45 1.52 1.58 1.64 1.78 1.77 1.77 1.82 1.89 1.88 1.84 1.76 1.70 1.63 1.57 1.49 1.47 1.43 1.39 1.35 1.35 1.33 1.32 1.34 1.34 1.38 1.37 1.40 1.37 1.34 1.25 1.19 1.19 1.19 1.07 1.07 1.09 1.08 1.09 1.10 1.06 0.99 0.96 0.94 0.91 0.85 0.81 0.75 0.72 0.70 0.69 0.71 0.79 0.89 0.99 1.00 0.99 0.95 0.93 0.96 0.98 0.98 0.97 0.97 0.97 0.90 0.81 0.82 0.84 0.85 0.85 0.83 0.83
1.70 1.75 1.74 1.72 1.66 1.63 1.59 1.51 1.50 1.55 1.54 1.53 1.47 1.45 1.55 1.62 1.74 1.75 1.70 1.80 1.83 1.85 1.85 1.78 1.74 1.69 1.61 1.52 1.49 1.46 1.41 1.37 1.39 1.40 1.31 1.30 1.29 1.33 1.40 1.43 1.43 1.40 1.30 1.22 1.19 1.18 1.12 1.09 1.10 1.09 1.08 1.11 1.12 1.02 0.96 0.95 0.92 0.85 0.77 0.70 0.71 0.73 0.73 0.78 0.87 0.97 1.05 1.07 1.01 0.90 0.84 0.92 0.99 1.01 0.97 0.92 0.90 0.89 0.88 0.87 0.84 0.83 0.85 0.84 0.82
1.64 1.60 1.64 1.73 1.79 1.64 1.58 1.53 1.47 1.51 1.55 1.54 1.50 1.47 1.49 1.59 1.66 1.74 1.72 1.83 1.87 1.82 1.80 1.76 1.80 1.73 1.63 1.57 1.53 1.47 1.41 1.39 1.38 1.38 1.33 1.29 1.27 1.31 1.39 1.44 1.40 1.38 1.36 1.26 1.21 1.17 1.15 1.13 1.11 1.09 1.09 1.11 1.12 1.04 0.96 0.94 0.93 0.85 0.71 0.71 0.75 0.77 0.79 0.89 0.96 1.02 1.09 1.12 1.09 1.01 0.89 0.92 0.94 0.99 0.99 0.95 0.88 0.89 0.89 0.88 0.87 0.87 0.85 0.83 0.82
1.67 1.65 1.70 1.68 1.68 1.66 1.55 1.45 1.48 1.54 1.56 1.56 1.55 1.53 1.49 1.59 1.67 1.66 1.76 1.81 1.78 1.83 1.83 1.81 1.84 1.75 1.62 1.55 1.55 1.47 1.41 1.37 1.40 1.38 1.34 1.28 1.24 1.28 1.39 1.45 1.40 1.41 1.34 1.26 1.21 1.19 1.17 1.16 1.14 1.11 1.11 1.12 1.09 1.04 0.97 0.93 0.92 0.84 0.69 0.70 0.73 0.78 0.84 0.92 1.01 1.08 1.14 1.12 1.10 1.02 0.91 0.88 0.96 0.97 0.96 0.96 0.96 0.95 0.93 0.90 0.87 0.85 0.86 0.84 0.82
1.70 1.69 1.71 1.68 1.70 1.60 1.51 1.50 1.50 1.52 1.59 1.59 1.60 1.58 1.56 1.54 1.65 1.75 1.80 1.81 1.79 1.76 1.82 1.77 1.78 1.72 1.63 1.49 1.51 1.50 1.42 1.37 1.38 1.36 1.31 1.24 1.20 1.24 1.36 1.41 1.39 1.40 1.35 1.26 1.20 1.20 1.18 1.17 1.13 1.13 1.12 1.14 1.10 1.05 0.99 0.94 0.92 0.84 0.71 0.65 0.65 0.75 0.85 0.96 1.05 1.11 1.14 1.16 1.14 1.00 0.94 0.88 0.94 1.01 1.02 1.00 0.99 0.97 0.94 0.93 0.91 0.87 0.86 0.85 0.82
1.66 1.65 1.68 1.70 1.67 1.54 1.49 1.51 1.46 1.49 1.54 1.58 1.58 1.59 1.58 1.57 1.58 1.74 1.79 1.84 1.76 1.81 1.80 1.76 1.70 1.62 1.57 1.52 1.49 1.49 1.47 1.36 1.33 1.31 1.29 1.26 1.21 1.23 1.30 1.37 1.35 1.37 1.31 1.25 1.20 1.18 1.17 1.14 1.13 1.15 1.14 1.09 1.07 1.04 1.00 0.95 0.91 0.86 0.77 0.64 0.55 0.66 0.82 0.96 1.08 1.16 1.18 1.19 1.11 0.98 0.93 0.88 0.92 1.00 1.07 1.03 0.99 0.95 0.92 0.88 0.88 0.86 0.85 0.83 0.79
1.57 1.60 1.66 1.63 1.62 1.59 1.52 1.49 1.51 1.51 1.56 1.54 1.54 1.54 1.56 1.55 1.61 1.61 1.72 1.70 1.73 1.75 1.74 1.70 1.66 1.60 1.49 1.50 1.57 1.48 1.46 1.42 1.29 1.30 1.29 1.26 1.27 1.26 1.30 1.25 1.28 1.30 1.28 1.25 1.20 1.17 1.17 1.13 1.12 1.17 1.15 1.05 1.07 1.05 1.00 0.94 0.91 0.89 0.80 0.65 0.56 0.68 0.84 0.96 1.02 1.16 1.21 1.21 1.15 1.08 1.02 0.95 0.93 0.98 1.00 1.03 1.00 0.95 0.93 0.91 0.86 0.84 0.81 0.76 0.80
1.56 1.56 1.56 1.58 1.59 1.54 1.50 1.48 1.48 1.47 1.52 1.50 1.49 1.49 1.52 1.59 1.57 1.57 1.59 1.59 1.61 1.68 1.69 1.67 1.63 1.60 1.46 1.47 1.54 1.54 1.49 1.40 1.34 1.30 1.30 1.29 1.25 1.25 1.24 1.19 1.15 1.22 1.22 1.21 1.19 1.16 1.12 1.11 1.12 1.17 1.15 1.05 1.09 1.05 1.00 0.93 0.89 0.86 0.81 0.61 0.55 0.80 0.94 1.04 1.12 1.16 1.16 1.16 1.18 1.15 1.04 0.99 0.92 0.92 0.99 1.01 0.98 0.94 0.93 0.89 0.86 0.84 0.81 0.77 0.74
1.48 1.56 1.59 1.58 1.57 1.53 1.51 1.50 1.49 1.48 1.48 1.45 1.47 1.47 1.48 1.53 1.55 1.53 1.53 1.58 1.63 1.69 1.65 1.63 1.62 1.55 1.48 1.50 1.55 1.60 1.43 1.42 1.41 1.31 1.30 1.23 1.21 1.18 1.18 1.17 1.11 1.12 1.16 1.15 1.14 1.11 1.07 1.08 1.12 1.13 1.12 1.10 1.08 1.05 1.01 0.93 0.88 0.85 0.74 0.67 0.66 0.80 0.90 1.01 1.08 1.12 0.99 1.04 1.09 1.07 1.04 0.95 0.95 0.95 0.97 0.98 0.98 0.95 0.91 0.88 0.87 0.84 0.78 0.76 0.76
1.44 1.49 1.55 1.56 1.55 1.55 1.51 1.51 1.50 1.53 1.48 1.41 1.41 1.41 1.45 1.45 1.47 1.51 1.51 1.54 1.54 1.60 1.62 1.69 1.65 1.54 1.51 1.55 1.61 1.48 1.49 1.43 1.42 1.37 1.24 1.17 1.15 1.14 1.13 1.13 1.09 1.07 1.07 1.09 1.08 1.03 1.03 1.07 1.10 1.12 1.13 1.13 1.08 1.06 1.01 0.92 0.85 0.81 0.74 0.72 0.78 0.78 0.85 1.01 1.09 1.06 0.98 1.10 1.20 1.12 1.08 1.05 1.03 0.94 0.96 0.94 0.94 0.92 0.88 0.88 0.87 0.85 0.81 0.78 0.78
1.40 1.45 1.48 1.46 1.52 1.53 1.51 1.49 1.48 1.47 1.41 1.36 1.35 1.39 1.40 1.41 1.42 1.44 1.49 1.49 1.49 1.53 1.62 1.66 1.60 1.56 1.50 1.52 1.56 1.48 1.46 1.45 1.40 1.36 1.25 1.13 1.05 1.04 1.09 1.10 1.09 1.08 1.02 0.99 1.00 1.01 1.01 1.04 1.08 1.10 1.13 1.13 1.11 1.07 1.00 0.90 0.84 0.80 0.76 0.78 0.81 0.83 0.91 1.03 1.10 1.09 1.00 1.13 1.20 1.17 1.11 1.01 0.96 0.97 0.97 0.92 0.91 0.92 0.90 0.86 0.83 0.84 0.83 0.82 0.79
1.36 1.40 1.41 1.45 1.48 1.48 1.49 1.42 1.39 1.36 1.29 1.32 1.31 1.30 1.30 1.35 1.38 1.43 1.45 1.50 1.50 1.54 1.63 1.61 1.56 1.54 1.48 1.47 1.47 1.46 1.46 1.46 1.39 1.34 1.25 1.06 0.96 1.01 1.09 1.12 1.13 1.07 1.02 0.98 0.95 0.95 0.98 1.01 1.04 1.07 1.08 1.12 1.12 1.08 0.99 0.91 0.85 0.81 0.74 0.78 0.81 0.87 0.93 0.97 1.03 1.00 0.90 1.01 1.12 1.03 0.98 0.95 0.92 0.93 0.98 0.95 0.87 0.88 0.87 0.85 0.81 0.80 0.79 0.77 0.78
1.32 1.34 1.35 1.36 1.40 1.38 1.36 1.33 1.29 1.24 1.21 1.24 1.24 1.25 1.27 1.30 1.34 1.38 1.43 1.47 1.48 1.49 1.48 1.49 1.51 1.51 1.46 1.44 1.41 1.43 1.45 1.48 1.43 1.35 1.25 1.08 0.96 1.08 1.08 1.11 1.13 1.06 1.01 0.96 0.97 0.99 1.01 1.04 0.99 1.01 1.03 1.09 1.11 1.06 0.98 0.93 0.87 0.81 0.74 0.73 0.73 0.81 0.89 0.92 0.97 0.99 0.84 0.86 1.06 1.04 0.98 0.90 0.85 0.92 0.98 0.93 0.89 0.85 0.82 0.81 0.81 0.78 0.78 0.78 0.75
1.21 1.27 1.24 1.28 1.29 1.31 1.31 1.27 1.22 1.18 1.20 1.18 1.23 1.20 1.19 1.23 1.30 1.39 1.45 1.51 1.55 1.53 1.51 1.48 1.49 1.45 1.37 1.35 1.35 1.33 1.43 1.51 1.47 1.38 1.24 1.14 1.11 1.13 1.10 1.13 1.13 1.09 1.01 0.97 1.02 1.02 1.05 0.99 0.96 1.00 1.00 1.09 1.10 1.06 0.98 0.94 0.87 0.81 0.76 0.70 0.67 0.81 0.88 0.90 0.90 0.87 0.92 0.96 0.99 0.97 0.92 0.78 0.83 0.87 0.90 0.88 0.88 0.84 0.82 0.80 0.79 0.78 0.76 0.74 0.71
0.99 1.06 1.18 1.25 1.23 1.22 1.21 1.19 1.18 1.17 1.16 1.16 1.16 1.18 1.20 1.22 1.30 1.37 1.44 1.52 1.56 1.52 1.46 1.50 1.46 1.41 1.35 1.32 1.33 1.30 1.43 1.43 1.46 1.41 1.32 1.25 1.22 1.19 1.17 1.16 1.15 1.10 1.05 0.99 1.01 1.07 1.05 0.96 1.00 0.99 1.01 1.04 1.07 1.06 0.99 0.95 0.88 0.82 0.79 0.70 0.71 0.82 0.86 0.88 0.94 1.00 0.89 1.01 1.00 0.95 0.83 0.84 0.85 0.82 0.86 0.87 0.86 0.83 0.80 0.76 0.75 0.75 0.73 0.72 0.72
0.96 0.89 0.97 1.07 1.14 1.15 1.16 1.16 1.19 1.20 1.15 1.15 1.13 1.14 1.17 1.22 1.26 1.35 1.42 1.51 1.53 1.46 1.44 1.46 1.43 1.39 1.36 1.38 1.39 1.35 1.42 1.41 1.37 1.50 1.43 1.36 1.33 1.26 1.21 1.17 1.09 1.09 1.08 1.04 1.00 1.01 1.05 0.99 0.98 0.96 0.95 1.00 1.06 1.05 1.00 0.96 0.91 0.83 0.81 0.75 0.74 0.76 0.85 0.88 0.91 0.90 0.79 1.00 1.04 0.97 0.90 0.87 0.90 0.81 0.86 0.85 0.83 0.80 0.78 0.71 0.73 0.74 0.74 0.73 0.73
0.70 0.93 0.90 0.91 0.98 1.14 1.18 1.18 1.22 1.18 1.17 1.15 1.17 1.18 1.15 1.20 1.27 1.32 1.39 1.49 1.47 1.38 1.36 1.40 1.41 1.46 1.40 1.40 1.51 1.48 1.37 1.36 1.44 1.50 1.50 1.43 1.42 1.34 1.24 1.21 1.14 1.14 1.10 1.06 0.96 0.95 0.95 0.94 0.91 0.90 0.90 0.96 1.00 1.00 0.97 0.95 0.91 0.86 0.84 0.78 0.75 0.74 0.77 0.92 0.93 0.78 0.72 0.93 1.00 0.97 0.91 0.90 0.87 0.82 0.86 0.87 0.82 0.78 0.77 0.77 0.72 0.68 0.71 0.73 0.72
0.49 0.60 0.78 0.89 0.83 0.95 1.05 1.08 1.13 1.13 1.16 1.11 1.13 1.17 1.20 1.15 1.22 1.29 1.35 1.39 1.32 1.23 1.25 1.30 1.38 1.45 1.46 1.45 1.43 1.34 1.46 1.55 1.48 1.63 1.54 1.49 1.43 1.39 1.26 1.23 1.17 1.12 1.10 1.05 1.01 0.94 0.92 0.91 0.86 0.87 0.87 0.92 0.95 0.96 0.93 0.91 0.89 0.89 0.86 0.78 0.74 0.68 0.82 0.93 0.89 0.92 0.97 0.96 0.92 0.90 0.91 0.87 0.81 0.81 0.87 0.87 0.84 0.79 0.76 0.76 0.72 0.70 0.73 0.72 0.69
0.49 0.52 0.53 0.64 0.84 0.98 0.89 0.96 0.99 1.12 1.16 1.17 1.14 1.18 1.23 1.18 1.19 1.23 1.29 1.34 1.26 1.15 1.19 1.26 1.35 1.36 1.40 1.46 1.34 1.31 1.52 1.59 1.62 1.71 1.73 1.58 1.43 1.38 1.25 1.18 1.19 1.14 1.08 1.04 1.01 0.93 0.90 0.86 0.88 0.89 0.90 0.91 0.93 0.94 0.93 0.88 0.88 0.90 0.87 0.80 0.72 0.69 0.75 0.89 0.87 0.91 0.93 0.92 0.86 0.80 0.86 0.85 0.84 0.79 0.87 0.88 0.84 0.76 0.76 0.78 0.74 0.71 0.70 0.69 0.69
0.46 0.46 0.53 0.55 0.63 0.73 1.05 0.95 0.95 1.07 1.09 1.15 1.18 1.18 1.25 1.18 1.23 1.29 1.32 1.32 1.25 1.15 1.16 1.24 1.32 1.46 1.37 1.38 1.33 1.43 1.56 1.66 1.72 1.74 1.77 1.73 1.65 1.37 1.25 1.15 1.19 1.15 1.06 1.03 1.02 0.94 0.87 0.85 0.84 0.84 0.86 0.89 0.89 0.93 0.94 0.84 0.84 0.87 0.86 0.82 0.77 0.80 0.81 0.68 0.85 0.90 0.88 0.92 0.90 0.84 0.83 0.82 0.80 0.76 0.83 0.86 0.84 0.79 0.78 0.77 0.73 0.67 0.65 0.64 0.67
0.51 0.46 0.47 0.53 0.61 0.64 0.70 0.79 0.94 0.92 1.09 1.15 1.21 1.21 1.24 1.22 1.24 1.33 1.31 1.28 1.32 1.20 1.18 1.17 1.29 1.41 1.43 1.40 1.42 1.54 1.61 1.62 1.70 1.73 1.79 1.71 1.75 1.45 1.24 1.17 1.19 1.13 1.05 1.04 1.03 0.97 0.88 0.86 0.86 0.87 0.86 0.86 0.84 0.83 0.98 0.91 0.78 0.75 0.82 0.82 0.90 0.92 0.91 0.82 0.77 0.84 0.87 0.93 0.94 0.86 0.82 0.77 0.74 0.74 0.78 0.80 0.82 0.81 0.80 0.77 0.73 0.69 0.64 0.62 0.66
0.49 0.47 0.43 0.40 0.48 0.57 0.70 0.68 0.70 0.86 0.93 1.08 1.17 1.22 1.25 1.22 1.27 1.36 1.32 1.33 1.34 1.29 1.30 1.26 1.29 1.39 1.50 1.54 1.60 1.61 1.59 1.62 1.65 1.72 1.72 1.73 1.72 1.56 1.34 1.25 1.23 1.14 1.07 1.04 1.01 0.97 0.95 0.88 0.87 0.86 0.87 0.91 0.92 0.89 0.97 0.91 0.89 0.77 0.70 0.85 0.91 0.95 0.99 0.87 0.74 0.92 0.86 0.90 0.91 0.88 0.83 0.77 0.71 0.73 0.75 0.77 0.82 0.80 0.77 0.78 0.74 0.69 0.66 0.62 0.66
0.52 0.45 0.38 0.42 0.50 0.58 0.58 0.62 0.72 0.67 0.83 0.87 1.00 1.14 1.24 1.26 1.30 1.33 1.32 1.33 1.35 1.34 1.39 1.41 1.39 1.45 1.57 1.61 1.72 1.68 1.58 1.62 1.68 1.64 1.63 1.63 1.58 1.61 1.43 1.32 1.20 1.15 1.06 1.05 1.02 0.99 0.94 0.90 0.81 0.79 0.80 0.93 0.91 0.93 0.97 0.94 0.90 0.87 0.77 0.86 0.93 0.97 0.97 0.93 0.75 0.96 0.90 0.88 0.91 0.90 0.85 0.77 0.70 0.71 0.73 0.77 0.81 0.78 0.80 0.78 0.77 0.70 0.65 0.62 0.62
0.46 0.44 0.41 0.36 0.42 0.52 0.57 0.64 0.61 0.59 0.66 0.91 0.90 1.01 1.15 1.23 1.27 1.35 1.30 1.29 1.32 1.32 1.38 1.46 1.50 1.52 1.55 1.54 1.59 1.58 1.59 1.61 1.65 1.65 1.56 1.56 1.57 1.54 1.49 1.41 1.29 1.28 1.09 1.10 1.05 0.99 0.94 0.89 0.84 0.78 0.81 0.92 0.91 0.81 0.93 0.97 0.96 0.91 0.85 0.83 0.92 0.98 0.94 0.95 0.83 0.95 0.96 0.95 0.93 0.90 0.84 0.79 0.70 0.68 0.74 0.77 0.77 0.79 0.79 0.77 0.77 0.72 0.65 0.58 0.59
0.44 0.40 0.41 0.41 0.44 0.47 0.52 0.53 0.58 0.62 0.64 0.82 0.84 0.92 0.97 1.16 1.30 1.45 1.44 1.30 1.33 1.33 1.32 1.42 1.52 1.55 1.56 1.56 1.56 1.65 1.58 1.55 1.56 1.59 1.55 1.57 1.58 1.57 1.53 1.52 1.44 1.35 1.20 1.22 1.12 1.03 1.01 0.95 0.95 0.90 0.81 0.86 0.91 0.86 0.83 0.92 0.92 0.94 0.95 0.90 0.88 0.95 0.93 0.93 0.93 0.81 0.92 0.93 0.93 0.90 0.84 0.78 0.69 0.69 0.71 0.76 0.75 0.77 0.75 0.75 0.74 0.69 0.62 0.61 0.58
0.40 0.38 0.37 0.39 0.38 0.35 0.43 0.49 0.50 0.53 0.63 0.73 0.80 0.87 0.89 1.07 1.21 1.31 1.35 1.37 1.31 1.35 1.40 1.41 1.43 1.54 1.59 1.57 1.56 1.52 1.58 1.63 1.59 1.55 1.55 1.51 1.50 1.52 1.52 1.54 1.50 1.41 1.34 1.39 1.32 1.14 1.07 1.06 1.00 0.98 0.95 0.78 0.88 0.77 0.76 0.84 0.87 0.91 0.94 0.92 0.93 0.88 0.93 0.91 0.97 0.89 0.85 0.87 0.88 0.89 0.86 0.79 0.69 0.64 0.65 0.71 0.75 0.73 0.75 0.74 0.72 0.69 0.65 0.61 0.61
0.42 0.38 0.38 0.39 0.42 0.47 0.47 0.51 0.58 0.56 0.48 0.67 0.79 0.82 0.85 0.87 0.87 0.98 1.09 1.19 1.23 1.31 1.39 1.42 1.42 1.44 1.46 1.56 1.61 1.57 1.57 1.57 1.59 1.55 1.51 1.50 1.52 1.50 1.52 1.56 1.52 1.54 1.48 1.37 1.41 1.29 1.21 1.18 1.09 0.97 0.95 0.85 0.83 0.74 0.85 0.81 0.88 0.88 0.92 0.92 0.93 0.93 0.95 0.89 0.93 0.95 0.93 0.93 0.90 0.89 0.88 0.81 0.80 0.72 0.66 0.63 0.71 0.72 0.77 0.74 0.72 0.69 0.66 0.65 0.63
0.47 0.40 0.39 0.38 0.43 0.45 0.50 0.49 0.48 0.61 0.61 0.66 0.72 0.72 0.72 0.75 0.80 0.93 0.97 0.96 0.98 1.17 1.28 1.34 1.35 1.36 1.39 1.49 1.53 1.53 1.56 1.59 1.60 1.55 1.59 1.55 1.54 1.53 1.46 1.54 1.57 1.62 1.70 1.56 1.50 1.42 1.35 1.22 1.10 1.05 1.03 0.86 0.89 0.86 0.72 0.88 0.87 0.90 0.90 0.93 0.94 0.96 0.97 0.95 0.90 0.93 0.92 0.96 0.94 0.92 0.90 0.87 0.85 0.81 0.74 0.65 0.67 0.68 0.74 0.78 0.75 0.72 0.68 0.63 0.64
0.44 0.42 0.43 0.45 0.49 0.51 0.51 0.49 0.40 0.53 0.59 0.59 0.60 0.67 0.71 0.70 0.67 0.76 0.80 0.85 0.96 0.96 0.99 1.17 1.32 1.33 1.41 1.50 1.52 1.53 1.54 1.61 1.66 1.69 1.58 1.57 1.61 1.59 1.51 1.52 1.58 1.63 1.73 1.64 1.52 1.60 1.53 1.38 1.25 1.19 1.11 0.99 0.97 0.96 0.87 0.82 0.91 0.91 0.92 0.90 0.97 0.97 0.96 1.00 0.94 0.87 0.90 0.96 0.95 0.93 0.92 0.89 0.86 0.83 0.79 0.70 0.68 0.67 0.65 0.78 0.75 0.70 0.70 0.67 0.62
0.48 0.45 0.43 0.44 0.44 0.47 0.50 0.46 0.48 0.47 0.52 0.57 0.54 0.56 0.63 0.70 0.65 0.75 0.71 0.66 0.81 0.86 0.92 1.00 1.17 1.35 1.37 1.40 1.46 1.49 1.53 1.52 1.57 1.65 1.70 1.66 1.63 1.63 1.60 1.60 1.57 1.64 1.70 1.70 1.63 1.59 1.55 1.46 1.28 1.28 1.19 1.11 0.98 0.94 0.95 0.92 0.87 0.93 0.94 0.93 0.92 0.96 1.01 1.01 0.99 0.94 0.86 0.92 0.96 0.95 0.93 0.91 0.86 0.82 0.77 0.73 0.68 0.62 0.60 0.71 0.77 0.75 0.70 0.72 0.67
0.45 0.47 0.47 0.46 0.48 0.52 0.51 0.48 0.47 0.42 0.46 0.49 0.50 0.52 0.53 0.55 0.62 0.64 0.54 0.67 0.77 0.74 0.81 0.89 0.94 1.05 1.17 1.29 1.31 1.35 1.40 1.54 1.56 1.59 1.60 1.69 1.72 1.69 1.73 1.74 1.79 1.69 1.78 1.72 1.64 1.61 1.56 1.52 1.42 1.20 1.17 1.06 0.93 0.92 0.91 0.91 0.91 0.88 0.91 0.98 0.96 0.94 0.98 0.99 1.01 0.99 0.93 0.91 0.92 0.97 0.94 0.92 0.88 0.84 0.78 0.74 0.69 0.64 0.55 0.65 0.74 0.75 0.74 0.70 0.68
0.50 0.49 0.47 0.46 0.47 0.47 0.48 0.47 0.45 0.43 0.45 0.45 0.47 0.46 0.54 0.54 0.53 0.55 0.47 0.56 0.63 0.77 0.74 0.78 0.87 1.02 1.06 1.14 1.27 1.28 1.31 1.40 1.51 1.55 1.58 1.60 1.62 1.59 1.67 1.74 1.79 1.83 1.76 1.70 1.62 1.61 1.55 1.56 1.54 1.30 1.16 1.03 0.93 0.91 0.90 0.91 0.89 0.87 0.85 0.90 0.94 0.96 0.95 0.93 1.00 1.02 1.00 0.96 0.87 0.92 0.97 0.93 0.90 0.86 0.83 0.78 0.77 0.66 0.59 0.55 0.66 0.70 0.74 0.74 0.69
0.52 0.50 0.49 0.47 0.46 0.46 0.47 0.43 0.40 0.39 0.40 0.42 0.43 0.46 0.50 0.49 0.44 0.48 0.46 0.53 0.55 0.66 0.72 0.71 0.76 0.95 1.10 1.06 1.22 1.29 1.26 1.28 1.36 1.44 1.50 1.52 1.57 1.55 1.58 1.58 1.64 1.68 1.69 1.69 1.59 1.56 1.60 1.58 1.48 1.44 1.25 1.07 1.01 0.97 0.89 0.88 0.92 0.91 0.93 0.85 0.86 0.89 0.92 0.91 0.96 0.99 1.03 1.01 0.94 0.89 0.92 0.93 0.91 0.89 0.84 0.82 0.78 0.74 0.65 0.63 0.58 0.62 0.67 0.70 0.70
0.53 0.47 0.46 0.47 0.45 0.47 0.45 0.43 0.42 0.39 0.40 0.43 0.43 0.47 0.51 0.51 0.51 0.51 0.52 0.47 0.51 0.50 0.58 0.57 0.71 0.80 0.90 1.00 1.13 1.19 1.22 1.28 1.35 1.46 1.44 1.48 1.50 1.49 1.55 1.57 1.54 1.56 1.54 1.56 1.58 1.54 1.51 1.44 1.46 1.42 1.40 1.18 1.06 0.94 0.97 0.93 0.95 0.90 0.83 0.84 0.80 0.82 0.82 0.87 0.89 0.94 0.99 1.00 0.98 0.94 0.90 0.87 0.89 0.90 0.87 0.84 0.83 0.79 0.76 0.68 0.69 0.60 0.64 0.62 0.64
0.54 0.49 0.48 0.45 0.45 0.45 0.46 0.45 0.43 0.47 0.46 0.47 0.52 0.51 0.50 0.55 0.56 0.58 0.54 0.58 0.55 0.49 0.38 0.49 0.64 0.73 0.72 0.87 0.98 1.03 1.12 1.22 1.21 1.34 1.37 1.41 1.46 1.43 1.45 1.50 1.49 1.48 1.36 1.39 1.43 1.50 1.50 1.43 1.36 1.36 1.34 1.25 1.11 1.07 1.07 1.05 0.99 0.93 0.90 0.81 0.75 0.73 0.78 0.83 0.84 0.87 0.91 0.93 0.96 0.96 0.93 0.90 0.87 0.84 0.84 0.87 0.86 0.85 0.81 0.79 0.75 0.71 0.67 0.65 0.62
0.56 0.50 0.48 0.46 0.43 0.47 0.46 0.44 0.47 0.46 0.47 0.47 0.52 0.59 0.57 0.55 0.55 0.59 0.50 0.53 0.62 0.54 0.51 0.61 0.57 0.43 0.76 0.71 0.70 0.76 0.90 0.97 1.06 1.13 1.20 1.21 1.23 1.32 1.37 1.41 1.36 1.34 1.34 1.38 1.37 1.35 1.31 1.35 1.26 1.32 1.38 1.34 1.25 1.12 1.10 1.14 1.18 1.12 0.98 0.88 0.79 0.75 0.70 0.72 0.83 0.81 0.83 0.87 0.91 0.94 0.96 0.91 0.88 0.86 0.84 0.83 0.84 0.86 0.83 0.82 0.82 0.76 0.73 0.72 0.67
0.59 0.52 0.50 0.48 0.46 0.50 0.49 0.45 0.51 0.51 0.49 0.52 0.63 0.66 0.60 0.48 0.45 0.41 0.45 0.45 0.47 0.53 0.56 0.55 0.54 0.71 0.68 0.70 0.63 0.59 0.65 0.78 0.83 0.89 0.94 1.01 1.00 0.97 1.02 1.06 1.15 1.23 1.29 1.31 1.31 1.31 1.26 1.25 1.25 1.22 1.28 1.34 1.36 1.30 1.23 1.18 1.13 1.15 1.03 0.97 0.90 0.76 0.75 0.74 0.78 0.81 0.83 0.86 0.89 0.89 0.84 0.86 0.87 0.86 0.85 0.84 0.83 0.82 0.83 0.81 0.83 0.80 0.79 0.75 0.72
0.62 0.57 0.53 0.54 0.53 0.54 0.50 0.47 0.52 0.47 0.56 0.64 0.50 0.48 0.45 0.45 0.44 0.36 0.41 0.43 0.38 0.41 0.62 0.58 0.44 0.48 0.46 0.49 0.54 0.60 0.58 0.53 0.57 0.65 0.69 0.73 0.77 0.83 0.85 0.85 0.89 0.96 1.14 1.27 1.37 1.37 1.35 1.31 1.27 1.24 1.16 1.19 1.30 1.36 1.33 1.32 1.21 1.12 1.12 1.03 0.94 0.90 0.79 0.81 0.81 0.77 0.79 0.84 0.83 0.83 0.85 0.80 0.79 0.80 0.83 0.85 0.84 0.82 0.84 0.83 0.81 0.84 0.79 0.78 0.73
0.63 0.60 0.56 0.57 0.60 0.57 0.56 0.57 0.56 0.46 0.54 0.59 0.50 0.44 0.43 0.42 0.43 0.38 0.39 0.43 0.41 0.36 0.38 0.39 0.40 0.54 0.52 0.54 0.47 0.57 0.56 0.54 0.57 0.54 0.52 0.50 0.52 0.57 0.66 0.73 0.77 0.79 0.84 0.98 1.20 1.33 1.38 1.37 1.34 1.21 1.21 1.17 1.19 1.34 1.36 1.35 1.23 1.14 1.08 1.03 0.99 1.01 0.89 0.84 0.85 0.83 0.79 0.85 0.85 0.77 0.77 0.79 0.78 0.78 0.82 0.84 0.85 0.85 0.83 0.84 0.83 0.81 0.80 0.75 0.74
0.66 0.60 0.59 0.56 0.58 0.56 0.58 0.65 0.59 0.54 0.50 0.51 0.51 0.44 0.43 0.46 0.46 0.41 0.40 0.47 0.48 0.50 0.50 0.48 0.46 0.46 0.57 0.57 0.53 0.58 0.53 0.48 0.50 0.52 0.52 0.55 0.55 0.53 0.56 0.57 0.67 0.75 0.78 0.82 0.86 1.00 1.23 1.31 1.34 1.25 1.18 1.22 1.23 1.32 1.34 1.37 1.22 1.29 1.27 1.18 1.02 0.91 0.96 0.88 0.92 0.89 0.87 0.87 0.88 0.82 0.76 0.74 0.73 0.78 0.81 0.82 0.82 0.82 0.83 0.84 0.86 0.81 0.78 0.75 0.73
0.66 0.63 0.61 0.58 0.56 0.57 0.59 0.66 0.65 0.61 0.54 0.50 0.58 0.52 0.50 0.46 0.48 0.49 0.45 0.48 0.51 0.58 0.59 0.50 0.42 0.48 0.44 0.51 0.55 0.52 0.50 0.47 0.46 0.55 0.57 0.57 0.58 0.59 0.62 0.63 0.64 0.71 0.74 0.76 0.79 0.82 0.90 1.11 1.31 1.36 1.35 1.16 1.17 1.25 1.37 1.41 1.36 1.27 1.08 1.11 1.11 1.05 0.91 0.92 0.94 1.00 1.01 0.95 0.94 0.88 0.84 0.75 0.74 0.74 0.76 0.76 0.78 0.80 0.79 0.79 0.77 0.83 0.81 0.79 0.78
0.64 0.63 0.60 0.59 0.59 0.57 0.59 0.65 0.67 0.65 0.57 0.54 0.51 0.50 0.47 0.50 0.47 0.55 0.61 0.56 0.52 0.46 0.39 0.39 0.38 0.41 0.48 0.54 0.52 0.50 0.51 0.53 0.54 0.54 0.53 0.57 0.62 0.65 0.63 0.66 0.68 0.71 0.71 0.68 0.68 0.72 0.81 0.88 0.99 1.20 1.35 1.28 1.18 1.24 1.33 1.42 1.40 1.44 1.32 1.19 1.10 1.03 1.01 1.10 1.09 1.05 1.11 1.05 1.02 1.00 0.94 0.86 0.80 0.77 0.74 0.73 0.78 0.78 0.77 0.77 0.76 0.78 0.82 0.81 0.81
0.62 0.64 0.62 0.60 0.60 0.59 0.59 0.64 0.67 0.67 0.59 0.52 0.50 0.50 0.49 0.56 0.53 0.54 0.54 0.56 0.45 0.40 0.35 0.33 0.37 0.35 0.38 0.39 0.53 0.55 0.53 0.48 0.50 0.51 0.56 0.57 0.60 0.62 0.63 0.63 0.64 0.67 0.67 0.70 0.70 0.68 0.63 0.67 0.78 0.90 1.08 1.32 1.30 1.29 1.30 1.43 1.43 1.44 1.44 1.39 1.31 1.12 1.14 1.22 1.17 1.01 1.21 1.20 1.16 1.13 1.08 1.02 0.96 0.90 0.85 0.79 0.77 0.82 0.84 0.80 0.79 0.76 0.80 0.81 0.80
0.58 0.63 0.63 0.60 0.61 0.62 0.62 0.64 0.67 0.68 0.63 0.54 0.54 0.55 0.57 0.56 0.53 0.50 0.45 0.41 0.42 0.43 0.44 0.45 0.42 0.43 0.46 0.43 0.41 0.50 0.54 0.56 0.56 0.58 0.57 0.58 0.60 0.61 0.61 0.64 0.65 0.63 0.66 0.63 0.59 0.61 0.67 0.72 0.77 0.75 0.75 0.95 1.18 1.23 1.29 1.35 1.43 1.45 1.46 1.44 1.41 1.40 1.41 1.30 1.15 1.14 1.04 1.19 1.24 1.19 1.14 1.11 1.06 0.99 0.94 0.90 0.87 0.84 0.84 0.82 0.78 0.76 0.75 0.82 0.81
0.59 0.62 0.63 0.62 0.61 0.64 0.65 0.64 0.68 0.67 0.65 0.59 0.54 0.57 0.54 0.52 0.47 0.46 0.46 0.45 0.48 0.46 0.47 0.45 0.44 0.45 0.42 0.47 0.53 0.52 0.53 0.59 0.59 0.57 0.54 0.57 0.58 0.58 0.60 0.61 0.61 0.64 0.66 0.65 0.64 0.62 0.64 0.68 0.73 0.83 0.84 0.81 0.86 0.98 1.16 1.34 1.32 1.33 1.39 1.33 1.32 1.38 1.40 1.38 1.32 1.18 1.09 1.03 1.10 1.25 1.26 1.22 1.17 1.09 1.02 0.96 0.93 0.89 0.88 0.86 0.82 0.79 0.79 0.78 0.83
0.59 0.59 0.61 0.62 0.63 0.66 0.66 0.64 0.67 0.67 0.66 0.62 0.56 0.55 0.59 0.58 0.54 0.51 0.51 0.53 0.49 0.51 0.52 0.52 0.52 0.44 0.48 0.46 0.47 0.51 0.55 0.51 0.55 0.60 0.57 0.56 0.57 0.57 0.59 0.58 0.58 0.59 0.61 0.62 0.66 0.70 0.70 0.66 0.66 0.73 0.84 0.90 0.89 0.88 0.94 1.07 1.27 1.31 1.34 1.29 1.24 1.21 1.25 1.28 1.28 1.25 1.09 1.01 1.02 1.09 1.15 1.24 1.22 1.19 1.13 1.10 1.03 0.98 0.92 0.90 0.89 0.87 0.86 0.83 0.83
0.58 0.58 0.62 0.63 0.64 0.66 0.66 0.64 0.66 0.68 0.68 0.64 0.56 0.54 0.58 0.59 0.56 0.55 0.53 0.53 0.53 0.52 0.54 0.52 0.49 0.45 0.50 0.46 0.50 0.54 0.56 0.58 0.57 0.52 0.52 0.54 0.51 0.51 0.51 0.54 0.56 0.58 0.58 0.58 0.61 0.64 0.67 0.67 0.65 0.65 0.75 0.83 0.96 0.96 0.89 0.93 1.05 1.20 1.26 1.30 1.25 1.22 1.21 1.20 1.21 1.20 1.17 1.14 1.03 1.05 1.13 1.17 1.12 1.15 1.21 1.16 1.12 1.07 1.00 0.96 0.92 0.90 0.88 0.87 0.86
0.58 0.57 0.60 0.63 0.66 0.65 0.65 0.64 0.65 0.66 0.67 0.64 0.57 0.53 0.57 0.57 0.53 0.55 0.53 0.52 0.51 0.52 0.46 0.47 0.53 0.46 0.49 0.50 0.48 0.52 0.52 0.54 0.54 0.59 0.57 0.53 0.53 0.51 0.47 0.44 0.48 0.51 0.56 0.58 0.56 0.56 0.60 0.66 0.69 0.68 0.68 0.75 0.77 0.85 0.91 0.96 1.00 1.05 1.19 1.26 1.25 1.24 1.18 1.11 1.12 1.18 1.15 1.10 1.09 1.07 1.07 1.12 1.20 1.20 1.25 1.25 1.21 1.16 1.09 1.05 1.00 0.93 0.88 0.89 0.94
Wind_Speed
7 8 8 8 8 8 8 8 7 7 7 7 7 8 8 7 7 6 6 5 5 5 5 4 4 4 3 3 4 4 4 3 3 4 4 5 5 6 7 7 8 8 8 8 9 9 9 9 8 8 9 10 11 11 11 12 12 12 13 15 16 18 19 19 19 19 20 20 19 18 18 18 17 17 17 17 16 16 16 16 16 16 16 16 16
8 8 8 8 8 8 8 8 7 7 7 7 7 8 8 8 7 7 6 6 5 5 5 5 5 5 4 3 4 4 4 4 4 4 4 5 6 6 7 7 8 8 9 9 9 10 10 9 8 9 10 11 12 12 11 12 13 13 14 15 17 18 19 19 19 19 19 19 19 18 17 17 16 16 16 16 16 16 16 16 16 15 15 15 15
8 9 9 9 8 9 8 8 8 7 8 7 7 7 8 7 7 7 7 6 6 6 5 6 6 5 5 4 4 4 4 4 4 4 4 5 6 7 7 7 8 8 9 9 9 10 10 9 9 10 11 11 12 12 11 12 13 14 14 16 17 18 19 19 19 19 19 19 19 18 17 16 16 16 16 16 16 16 16 15 15 15 15 14 14
8 8 9 9 9 9 8 8 8 7 8 7 6 6 6 6 6 7 7 7 7 7 7 6 6 6 5 5 4 4 4 4 4 4 4 5 6 7 7 7 8 8 9 10 10 10 10 10 9 10 11 12 12 12 11 12 13 14 15 16 17 19 20 20 19 20 20 19 18 17 16 16 16 16 16 15 15 15 15 15 15 14 14 14 14
9 9 9 9 9 9 8 8 7 7 7 7 6 6 6 6 6 7 7 7 7 7 8 8 7 6 6 6 5 4 4 4 5 5 5 5 6 7 7 7 8 8 9 11 11 10 10 10 10 11 12 12 12 12 12 13 13 14 15 16 18 19 20 20 20 20 19 18 17 16 16 16 16 16 15 15 15 14 14 14 14 14 13 13 13
9 9 9 8 8 8 8 7 7 7 7 6 6 5 5 6 6 7 7 7 7 7 8 9 8 7 6 6 5 5 5 5 5 5 5 6 6 7 7 7 7 8 10 11 12 11 10 10 11 12 12 12 12 12 12 13 13 14 15 17 18 20 20 20 19 19 18 17 15 15 15 15 15 15 15 14 14 14 14 14 13 13 12 12 12
9 9 9 8 8 8 7 7 7 7 7 6 6 6 6 6 7 7 8 8 8 8 8 9 9 8 7 6 6 5 5 5 5 6 6 6 7 7 8 7 8 9 10 11 12 12 11 10 11 12 12 12 12 12 12 13 13 14 15 17 19 19 20 19 19 18 17 16 15 14 15 15 15 15 14 14 13 13 13 12 12 12 11 11 11
9 8 8 8 8 8 7 7 7 8 8 7 6 6 6 7 7 7 8 8 8 9 9 9 9 9 8 7 6 5 5 5 6 6 6 7 7 7 8 8 8 9 11 12 13 12 11 11 12 13 13 13 13 12 12 12 13 14 16 17 19 20 19 19 18 17 17 16 15 14 14 14 15 14 14 13 13 12 12 11 11 11 10 10 10
8 8 8 7 7 7 8 8 8 8 8 7 7 7 7 7 7 7 8 8 8 9 10 10 10 9 9 8 7 6 5 5 6 7 7 7 7 7 8 8 9 10 11 12 13 12 11 12 13 13 13 13 13 12 12 12 13 14 15 17 19 20 19 19 18 17 16 16 15 15 14 14 15 14 13 12 12 12 11 11 10 10 10 9 9
7 7 7 8 7 7 8 8 8 8 8 8 8 8 8 8 8 7 8 9 9 9 10 10 10 10 9 9 8 7 6 6 6 7 7 7 7 7 7 8 9 10 11 12 13 13 12 12 13 14 13 13 13 12 12 12 12 14 15 17 19 20 19 18 17 16 16 16 15 15 15 14 14 14 13 12 11 11 10 10 9 9 9 8 8
7 7 7 7 8 8 8 8 9 9 9 9 8 8 8 8 8 8 8 9 10 10 10 10 10 10 10 10 10 8 7 7 6 7 8 8 7 7 8 8 9 11 12 13 14 13 12 12 13 14 14 14 13 13 12 12 12 13 15 17 18 19 19 18 16 16 16 16 15 15 14 14 13 13 13 12 11 10 9 9 8 8 8 7 7
7 7 7 7 8 9 8 9 9 9 9 9 9 9 9 9 9 9 9 10 10 11 11 11 11 10 10 11 10 10 8 8 8 7 8 8 8 8 8 8 9 11 12 13 14 13 12 13 14 14 14 14 14 13 12 12 12 13 15 17 18 19 19 18 16 16 16 16 15 15 14 13 13 13 13 12 11 10 9 8 8 7 7 6 6
7 7 8 8 9 9 9 9 9 9 9 9 9 9 8 9 9 10 10 10 10 11 11 11 11 11 10 11 11 10 9 9 9 8 8 8 8 8 8 9 9 11 12 13 14 13 13 13 14 14 14 14 14 13 13 12 12 13 15 17 18 18 18 18 16 16 16 16 15 15 14 13 13 13 12 12 11 10 9 8 7 6 6 5 5
7 8 8 9 9 10 9 9 9 9 9 9 8 8 8 8 9 10 10 10 10 11 11 11 11 11 10 10 11 11 10 10 9 8 7 8 9 9 9 9 10 11 13 14 14 14 13 13 14 15 15 14 14 13 13 12 12 13 15 17 17 17 18 17 17 17 17 15 15 15 13 13 13 13 12 11 11 10 8 7 6 6 5 4 4
7 8 8 9 9 10 10 9 9 9 9 9 8 8 8 8 8 9 10 11 11 11 11 11 11 10 10 10 11 11 12 11 10 9 8 8 9 10 10 10 10 12 13 14 14 14 14 14 14 15 15 15 14 14 13 12 13 13 15 17 17 17 17 17 17 17 17 16 15 14 13 13 13 13 12 11 10 10 8 7 6 5 4 4 3
8 8 7 8 9 9 10 10 10 10 10 10 9 8 8 8 8 9 10 11 11 11 12 12 11 11 10 10 11 11 12 13 12 11 9 8 9 10 10 11 11 12 13 14 14 14 14 14 14 15 16 15 15 14 13 12 13 13 15 17 17 16 16 16 17 17 17 16 16 14 13 13 13 13 12 12 11 10 9 7 6 5 4 3 3
8 8 8 8 8 8 10 10 11 11 11 10 10 9 9 9 9 9 10 10 11 11 12 12 12 11 11 11 11 11 12 13 13 12 11 10 10 11 11 11 12 12 13 14 14 14 14 14 14 15 16 16 15 14 13 13 13 13 15 17 18 16 15 16 16 17 17 16 16 14 13 13 13 13 13 12 11 10 9 8 7 5 4 3 2
8 8 8 8 8 8 9 10 11 11 11 11 11 10 9 9 9 9 9 10 10 10 11 11 11 12 12 11 11 11 12 13 14 13 12 11 11 11 11 12 13 12 12 14 14 14 14 14 14 15 16 16 15 14 13 13 13 13 14 16 18 17 16 15 15 17 17 16 16 15 14 14 13 13 13 12 11 10 9 8 7 6 5 4 2
7 8 8 9 9 9 9 10 10 11 11 12 12 11 10 9 9 9 9 9 9 10 10 11 11 12 12 12 12 12 12 13 14 14 13 12 12 11 12 12 13 13 12 13 14 14 14 14 14 15 16 16 15 14 14 13 13 13 14 16 18 17 16 15 15 17 17 16 16 15 14 14 13 13 13 12 11 10 10 8 7 6 5 4 3
8 8 9 9 10 10 10 10 10 11 11 12 12 11 10 10 9 9 9 9 10 10 10 11 11 12 12 13 13 12 12 13 14 16 15 14 13 12 12 13 13 13 12 13 14 15 15 15 15 16 17 17 16 15 14 14 13 13 14 16 18 17 15 15 15 16 17 16 16 16 15 14 14 14 13 13 12 11 10 9 8 7 6 4 3
9 9 9 10 10 11 11 11 11 11 11 11 11 11 11 10 10 9 10 10 10 10 10 11 11 11 12 13 13 12 12 13 14 16 17 15 14 13 13 13 13 13 13 13 14 15 15 15 15 16 18 17 16 15 14 14 13 13 13 15 18 17 16 15 15 15 16 17 16 16 16 15 14 14 14 13 12 11 10 9 8 7 6 5 4
10 10 10 11 11 11 11 11 12 11 11 10 11 11 11 11 10 10 11 11 11 11 11 11 11 11 12 13 13 13 13 13 14 16 17 17 16 14 14 14 13 13 13 13 14 15 15 16 16 17 18 17 16 15 14 14 14 14 13 14 17 18 17 16 16 15 16 17 17 17 16 15 15 15 14 14 12 11 10 9 8 7 7 6 5
10 10 11 11 11 11 10 10 11 11 11 10 11 11 11 11 11 11 11 11 11 11 11 11 11 11 12 12 12 12 13 13 14 15 17 18 17 16 15 15 14 13 13 13 14 15 15 16 16 17 18 18 17 16 14 14 14 14 14 14 16 17 17 16 16 16 16 17 17 17 17 16 16 15 15 14 13 12 11 10 9 8 7 7 6
10 10 11 11 11 11 10 10 10 11 11 11 11 11 11 11 11 11 12 12 12 12 12 12 12 12 12 12 12 13 13 13 14 15 16 17 18 17 16 15 14 14 14 13 14 15 15 16 16 17 18 18 17 17 15 14 14 14 14 15 15 16 16 17 17 16 17 17 17 17 17 17 17 16 16 15 14 13 12 10 9 9 8 7 6
10 11 11 11 11 11 11 11 10 11 11 11 11 11 11 11 11 11 12 12 12 12 12 12 12 12 12 12 12 13 13 14 14 15 16 17 18 18 17 15 15 14 14 14 14 15 16 16 17 17 18 18 18 18 17 16 14 14 15 15 15 15 16 17 17 16 17 18 17 17 17 17 17 17 16 16 15 14 13 11 10 9 9 8 7
11 10 10 11 11 11 11 11 11 11 11 11 11 11 11 11 11 11 11 12 12 12 12 12 12 13 13 11 11 12 13 14 14 15 16 17 19 19 18 16 16 15 15 15 15 15 16 16 17 17 18 19 19 19 18 17 16 15 15 15 15 15 15 16 17 16 17 18 18 18 17 17 17 17 17 16 15 15 13 12 11 10 10 9 8
11 10 10 11 11 10 10 11 11 11 11 11 11 11 11 12 11 11 11 12 12 12 12 12 12 13 13 12 11 12 13 13 14 16 16 17 18 19 18 17 17 16 15 16 15 16 16 16 17 17 18 19 20 20 19 18 17 16 15 15 15 15 16 16 17 16 17 17 18 18 18 18 18 18 17 17 16 15 14 13 12 11 10 10 9
10 10 11 11 11 11 11 11 11 11 11 11 11 11 11 11 11 11 11 12 12 12 13 13 13 13 13 13 13 13 13 14 15 16 17 17 17 19 19 17 17 17 16 16 16 16 16 17 17 18 18 19 20 20 20 19 18 17 16 16 15 15 16 16 16 17 17 18 18 18 18 18 18 18 18 17 17 16 15 14 13 12 11 10 10
11 11 11 12 12 12 11 11 12 12 12 11 11 11 10 11 11 11 11 12 13 13 13 13 14 14 14 14 14 14 14 14 15 16 17 17 17 18 19 19 19 18 17 17 17 17 17 17 17 18 18 19 19 20 20 20 19 18 17 17 16 16 16 16 16 16 17 18 18 18 18 18 18 18 18 18 17 17 16 15 14 13 12 12 11
11 12 12 12 12 12 11 12 12 12 12 12 12 12 11 11 11 12 12 12 13 14 14 13 14 14 14 14 14 14 14 14 14 15 16 16 16 18 19 20 20 19 19 18 18 17 17 17 17 17 18 18 19 20 20 21 21 20 19 18 17 17 16 17 17 17 17 17 18 18 18 18 18 18 18 18 18 17 17 16 15 14 13 13 12
12 12 12 12 12 12 11 12 12 12 12 13 12 12 12 12 12 12 12 12 13 13 14 15 15 15 15 15 15 15 15 15 15 15 16 15 16 17 18 19 21 20 20 19 18 17 17 17 17 17 18 18 19 20 20 21 21 21 20 19 19 18 17 17 18 18 17 17 18 18 18 18 18 19 19 19 18 18 18 17 16 15 15 14 13
12 12 12 12 12 11 11 12 12 12 12 12 12 12 13 13 13 12 12 13 13 13 13 14 15 15 15 15 16 16 16 16 16 15 16 17 17 17 17 17 20 21 19 18 17 17 17 17 17 17 18 18 18 19 20 21 22 22 21 21 20 20 19 18 18 19 19 18 18 18 18 19 19 19 19 19 19 19 19 18 17 16 16 15 14
12 12 13 12 12 12 12 12 12 12 12 12 12 12 13 13 13 13 13 14 14 14 14 13 14 15 16 15 15 16 17 16 16 16 16 17 17 17 17 17 19 20 18 17 17 16 17 17 18 17 18 18 18 19 19 20 21 22 22 22 22 21 21 20 20 20 20 20 19 19 19 19 19 19 20 20 20 20 20 19 19 18 17 16 15
12 13 13 12 13 13 13 13 12 13 13 12 12 12 13 13 13 13 13 14 14 14 14 14 14 14 15 16 16 16 17 17 17 17 16 17 17 17 17 16 17 18 18 17 16 16 16 17 18 18 18 18 18 19 19 20 21 22 23 23 23 23 22 22 21 21 21 21 21 20 20 20 20 20 20 20 21 21 21 20 20 19 18 17 17
13 13 13 13 13 13 13 13 13 13 13 13 13 13 13 13 13 13 13 14 14 14 15 15 14 14 14 15 15 16 17 18 18 18 17 17 17 17 17 15 15 16 17 17 16 16 16 16 17 18 18 18 18 19 19 20 20 21 23 23 23 23 23 23 23 23 23 23 23 22 21 21 20 20 20 20 21 21 21 21 21 20 20 19 18
13 13 13 13 13 13 13 13 13 13 13 13 13 13 13 13 13 13 13 13 14 14 14 15 15 15 14 14 14 15 15 17 18 18 18 18 17 18 18 17 16 15 15 15 14 16 17 16 17 18 18 18 18 19 19 20 20 21 22 23 23 23 23 24 24 24 24 24 24 24 23 22 21 21 21 21 21 21 22 22 22 21 21 20 19
14 14 13 13 13 13 13 13 13 13 13 13 13 13 13 13 13 13 13 13 14 14 15 15 16 16 15 14 14 14 15 16 17 17 18 18 18 18 19 19 19 18 17 16 15 16 17 17 18 18 19 19 19 19 20 20 21 21 22 22 24 24 24 24 24 24 24 24 25 25 25 24 23 22 22 22 22 22 22 22 22 22 22 22 21
15 14 14 14 13 13 13 13 12 12 13 13 13 13 13 13 13 13 13 14 14 14 15 15 16 16 16 16 16 15 16 16 16 17 18 18 18 18 19 20 20 20 20 20 19 18 19 19 20 20 20 20 20 20 20 20 20 21 22 22 23 24 25 25 25 25 25 25 25 25 25 25 25 24 23 23 23 23 23 23 23 23 23 23 22
15 15 14 14 14 13 13 12 12 12 12 13 13 13 13 12 12 12 13 13 14 14 14 15 16 16 16 17 17 17 17 17 17 17 18 18 19 19 20 20 21 21 22 22 22 22 21 22 23 22 21 21 22 22 21 20 21 21 22 22 22 23 25 25 26 26 26 25 26 26 26 26 26 26 25 25 24 24 24 24 24 24 24 23 23
16 16 15 15 14 14 13 13 13 12 12 12 13 13 13 12 12 12 12 12 13 13 14 14 15 16 16 17 18 18 18 19 19 19 19 19 20 20 21 21 22 22 22 23 23 23 24 24 25 24 23 23 23 23 23 22 22 21 21 22 22 23 24 25 26 26 26 26 26 26 26 26 27 27 26 26 26 25 25 25 25 24 24 24 24
17 17 16 16 15 14 14 14 13 13 13 12 12 12 12 12 12 12 12 12 12 13 13 14 15 15 16 17 18 18 18 19 20 21 21 21 21 21 22 22 22 22 22 23 24 24 24 25 26 27 26 25 25 24 24 23 23 22 21 22 22 23 24 25 26 26 27 27 27 27 27 27 27 27 27 27 27 26 26 26 26 25 25 25 25
18 17 17 16 15 15 14 14 14 13 13 13 12 12 12 12 12 12 12 12 12 12 13 13 14 15 15 16 17 17 18 19 20 21 21 22 22 22 23 23 23 23 23 23 24 25 25 25 26 28 29 29 28 27 26 24 24 24 22 22 23 23 24 25 26 26 27 27 27 28 28 27 27 27 28 28 28 28 27 27 27 27 26 25 25
19 18 18 17 16 16 15 14 14 14 14 13 13 13 13 13 13 13 13 12 12 12 12 13 13 14 15 16 16 17 17 19 20 20 21 21 22 22 22 23 23 23 23 23 24 25 26 26 27 27 28 30 30 29 28 27 25 25 24 24 24 23 24 25 26 26 27 27 27 28 28 28 28 28 28 28 28 28 28 28 28 28 27 26 26
19 19 18 17 17 16 16 15 15 15 14 14 13 13 13 13 13 13 13 12 12 12 12 13 13 14 14 15 16 17 18 19 19 20 20 20 21 21 22 22 22 22 22 23 24 24 25 26 27 28 28 29 30 30 29 29 28 26 25 25 25 24 23 24 26 26 27 27 27 28 28 28 29 29 29 29 28 29 29 29 29 29 28 28 27
20 19 19 18 17 17 16 16 15 15 15 14 14 14 13 13 13 13 12 12 12 12 12 12 13 13 14 15 16 17 17 18 19 20 20 21 21 21 21 22 22 22 22 23 23 24 25 25 26 28 29 29 31 31 30 31 30 29 28 26 25 24 23 23 25 26 27 27 27 28 28 28 28 29 29 29 29 29 30 29 29 30 30 29 29
20 20 19 19 18 18 17 17 16 15 15 15 14 14 13 13 13 12 12 12 12 12 12 12 12 13 13 14 15 16 17 17 18 19 20 21 21 21 22 22 23 23 23 23 23 24 24 25 26 27 28 29 31 32 32 32 32 31 31 29 27 26 24 23 23 24 26 27 27 27 28 28 28 29 29 30 30 30 30 30 30 30 30 30 30
21 20 20 19 19 18 18 17 17 16 15 15 15 14 14 13 13 13 13 13 12 12 13 13 13 13 13 13 14 15 16 16 17 18 19 20 20 21 22 23 23 23 23 24 24 24 25 25 26 26 28 28 29 31 32 32 32 33 33 33 31 29 28 27 25 23 24 26 27 27 27 28 28 29 30 30 31 31 31 31 31 31 31 31 31
21 20 20 20 19 19 18 18 17 17 16 16 16 15 14 14 14 14 14 13 13 14 14 13 13 13 14 14 14 15 15 16 17 18 18 19 20 20 21 22 23 24 24 24 24 25 25 26 26 26 27 28 29 30 30 31 32 33 34 35 34 32 31 31 30 27 26 26 27 28 28 28 28 29 30 30 31 31 31 32 31 31 31 32 32
21 21 20 20 19 19 19 18 18 17 17 17 16 16 15 15 15 15 15 15 15 15 15 14 14 14 14 15 15 15 16 16 17 17 18 19 19 20 21 21 22 23 24 24 25 25 26 27 27 27 27 29 29 30 30 31 31 32 33 35 36 35 34 32 31 31 29 28 28 28 28 28 28 29 30 31 31 31 32 32 32 32 31 32 32
21 21 20 20 20 20 19 19 19 18 17 18 17 17 16 16 16 16 16 16 16 16 16 16 16 16 15 15 16 16 16 17 17 17 18 18 19 19 20 21 22 22 23 24 25 26 26 27 28 29 29 29 30 31 31 32 32 32 33 34 36 37 36 35 32 32 32 31 29 28 27 27 28 29 30 31 31 32 31 31 32 32 32 32 32
21 21 21 20 20 20 20 20 20 19 19 19 18 18 18 18 18 18 18 18 17 17 17 17 17 17 16 16 16 17 17 17 18 18 18 19 19 20 20 21 22 22 23 24 25 26 26 27 28 29 30 31 31 31 32 32 33 33 34 34 35 36 37 37 35 33 33 33 32 31 29 27 27 29 30 31 32 32 32 31 31 32 32 32 33
Wind_Direction
257 258 258 259 264 269 273 275 278 281 281 284 281 271 263 258 252 246 243 237 233 228 220 213 204 189 184 181 175 175 178 176 170 169 168 165 165 165 163 161 160 157 153 153 155 156 156 155 152 153 154 149 146 144 143 142 141 141 141 140 143 144 143 142 140 139 138 134 132 131 128 124 121 118 116 114 114 112 109 107 105 102 98 93 89
254 257 256 260 264 267 270 274 278 280 280 284 283 273 265 258 247 241 238 234 231 225 214 207 203 191 191 191 183 181 184 183 178 178 176 173 171 170 170 168 167 164 160 159 160 159 159 158 155 155 155 151 146 144 142 142 141 142 142 142 146 147 146 144 143 143 140 137 135 132 129 126 123 121 118 115 114 112 110 108 106 103 98 93 88
254 258 257 260 263 263 267 273 277 278 279 282 282 276 269 260 245 238 233 230 230 224 212 206 205 197 198 198 191 190 191 192 188 187 184 179 176 174 173 173 173 171 167 165 163 162 163 161 157 157 156 152 148 145 143 143 143 143 143 146 148 149 148 146 145 144 142 140 138 135 132 128 125 123 120 117 115 113 111 110 108 105 99 93 88
254 257 257 262 264 261 264 272 276 278 278 278 279 276 269 258 244 236 228 226 228 223 214 207 205 202 202 204 202 200 199 200 198 195 190 184 181 177 174 175 176 175 171 169 167 165 166 164 160 159 158 154 151 148 146 145 145 145 145 149 151 150 148 146 146 145 143 142 139 136 135 131 127 124 122 120 118 116 114 112 110 106 101 94 88
255 257 257 260 263 260 261 269 274 277 274 275 277 274 263 250 242 236 226 226 227 222 215 209 208 206 204 208 207 204 205 207 205 200 194 189 185 181 177 176 178 176 173 172 170 168 168 167 164 161 159 157 155 152 149 147 147 148 147 150 152 150 149 148 147 146 146 146 142 138 137 136 132 128 125 124 121 119 117 114 111 108 102 96 89
254 259 258 256 258 258 257 262 270 273 272 275 276 271 259 248 242 237 230 227 227 225 219 211 211 212 208 209 209 206 209 211 209 204 201 195 189 184 181 179 179 177 175 173 173 171 170 169 166 163 161 160 158 154 152 150 150 152 151 152 154 153 151 150 148 148 150 152 149 144 142 140 136 132 130 127 125 122 119 117 114 110 104 97 90
254 255 257 254 252 256 255 257 266 271 272 275 276 270 260 253 246 240 234 228 228 227 220 215 213 218 217 211 209 209 211 215 212 208 206 200 191 185 182 181 181 178 176 175 173 172 172 170 167 165 163 162 161 157 153 152 153 155 155 156 157 156 155 153 151 151 154 155 156 152 147 144 141 137 134 131 128 125 122 119 117 112 106 99 91
254 252 256 252 245 250 256 259 266 272 274 276 275 269 261 254 245 238 232 227 229 224 220 220 217 220 221 213 209 208 213 218 214 208 206 202 193 186 183 182 183 180 178 177 174 174 174 171 169 167 165 164 164 160 156 156 156 158 159 161 162 160 158 157 155 155 158 159 161 158 151 149 146 142 138 135 131 128 125 122 118 113 108 101 92
252 254 255 252 242 244 256 262 266 270 273 276 275 269 261 253 242 236 231 226 226 222 221 225 223 222 220 215 212 210 212 217 214 209 206 203 196 190 185 183 185 182 181 180 176 176 175 173 172 170 168 167 166 164 160 159 160 162 163 165 166 165 163 161 159 160 161 162 163 161 156 154 151 148 144 139 136 132 127 123 119 114 108 101 94
253 256 254 252 248 247 256 263 265 267 270 272 271 268 260 252 244 237 232 228 226 222 223 226 226 225 222 219 217 215 212 214 214 209 203 201 199 195 189 186 187 185 184 183 179 178 177 176 174 172 171 170 169 168 165 163 164 166 167 169 170 169 166 164 163 163 164 165 165 163 159 157 155 153 150 145 140 135 130 126 121 116 109 103 95
256 257 254 250 248 250 256 262 263 265 269 269 267 265 259 253 247 241 234 229 227 224 224 226 227 226 227 225 221 216 213 215 215 208 201 198 200 200 195 191 190 188 187 185 181 180 180 179 177 175 174 173 172 172 170 168 167 169 171 171 172 172 171 168 168 167 167 169 168 167 164 161 160 158 156 152 146 140 135 130 125 119 112 105 96
257 258 255 250 249 252 256 261 263 264 268 268 264 263 259 254 248 243 237 232 231 228 228 228 228 229 229 227 221 216 214 217 214 205 202 199 199 202 199 193 190 190 188 185 183 182 182 181 180 179 177 175 175 175 173 172 171 172 174 174 174 175 175 174 173 171 170 169 169 169 168 165 165 164 160 158 154 148 143 138 132 124 116 107 97
255 259 256 254 254 255 257 260 261 261 265 265 263 262 259 255 247 242 239 236 235 232 231 231 231 231 230 227 221 218 216 216 213 203 202 202 201 202 201 195 190 189 188 187 185 185 185 184 183 182 180 179 178 178 176 175 175 175 177 177 177 178 179 178 177 177 173 169 171 174 174 171 171 169 165 162 160 157 152 147 139 132 123 111 100
253 258 257 256 255 255 257 258 257 257 259 262 262 262 259 254 248 242 239 239 238 236 233 232 233 231 229 226 222 219 216 215 211 203 203 206 204 203 203 197 191 189 189 189 188 188 188 187 186 185 183 182 181 180 178 178 178 178 179 180 180 180 180 181 182 183 177 172 176 178 177 175 175 173 170 168 166 164 160 156 150 142 133 119 105
256 258 258 257 256 254 254 255 256 256 258 261 261 261 259 254 249 243 240 240 240 239 235 233 234 232 227 225 222 218 215 213 210 206 208 210 207 205 203 198 192 190 190 191 191 191 190 189 189 188 186 184 184 183 181 182 182 181 182 183 183 182 183 184 184 185 181 178 180 180 178 177 177 177 174 172 172 171 168 165 161 155 146 130 112
259 259 260 258 257 254 252 253 255 256 258 261 262 261 260 257 254 248 243 241 242 240 237 234 234 232 227 224 222 219 216 214 212 210 212 212 209 206 202 199 194 191 191 192 193 193 192 191 191 190 189 187 186 185 184 184 185 185 186 185 185 184 185 186 186 188 185 182 184 183 182 181 179 180 178 177 178 177 175 173 170 166 159 147 128
263 263 261 258 258 256 252 252 254 256 258 261 263 264 264 261 258 253 246 243 243 240 234 232 231 230 228 224 222 221 219 217 215 214 215 213 209 207 203 200 195 191 191 192 194 195 194 193 193 191 191 189 187 187 187 186 188 189 189 189 187 185 186 187 190 191 188 186 187 185 184 184 182 183 182 181 183 183 181 180 179 176 172 166 150
265 267 263 259 257 258 255 253 254 256 259 261 264 265 266 263 260 254 247 243 242 235 229 230 230 229 226 224 223 221 220 217 215 215 215 212 209 207 203 200 196 192 191 193 195 196 196 195 195 193 192 191 189 189 189 189 191 192 192 191 189 187 187 189 192 193 191 189 190 189 186 186 185 187 186 185 187 187 187 186 186 186 184 182 171
267 266 266 263 259 259 259 258 256 257 259 261 263 264 264 261 258 252 245 242 238 232 229 231 232 228 224 224 225 223 221 218 215 214 213 211 209 207 203 199 197 195 194 194 196 198 199 198 197 196 194 193 192 192 192 192 193 194 195 195 191 190 190 192 195 196 195 194 194 195 192 190 189 190 190 189 191 192 192 192 192 194 194 192 191
273 269 268 266 263 263 262 261 261 260 260 260 261 261 261 258 255 249 243 240 237 233 231 232 230 227 225 224 225 224 222 221 216 212 211 210 208 206 203 199 198 198 197 197 198 199 201 200 199 197 195 194 194 194 196 196 196 197 198 198 196 194 193 195 197 197 197 197 198 199 197 196 194 194 194 194 196 196 196 197 198 201 202 202 208
274 272 270 267 264 264 263 263 263 263 262 260 260 260 258 256 253 248 243 240 238 237 236 233 229 227 227 224 223 224 224 222 218 213 210 209 207 204 201 200 200 200 199 200 201 201 201 201 200 197 196 195 195 196 198 199 200 201 201 201 201 199 199 199 197 198 199 201 202 202 202 202 200 199 199 198 200 201 201 203 204 207 210 212 219
270 272 273 271 268 265 263 264 263 262 262 261 261 260 258 254 252 249 245 243 241 239 237 235 231 230 229 224 223 226 227 225 221 216 211 209 207 203 201 201 201 201 201 201 201 201 201 201 200 198 197 196 196 196 199 203 204 205 204 204 203 203 204 202 200 201 203 203 203 204 205 206 206 205 204 203 204 205 205 207 209 212 215 219 225
269 272 274 273 272 269 267 267 265 261 259 261 263 262 258 253 251 250 246 244 242 238 237 235 233 231 229 225 224 225 227 227 223 216 210 208 208 206 204 203 204 204 203 202 201 201 200 200 201 199 198 197 198 198 200 203 205 208 208 204 204 206 207 205 204 205 205 205 206 207 208 210 210 209 209 208 208 209 210 211 214 217 221 223 228
271 274 274 272 271 270 271 271 269 264 260 260 262 263 260 255 252 251 247 245 244 240 239 237 234 231 229 228 225 225 226 227 224 219 212 209 208 208 206 205 206 206 206 205 202 201 200 200 200 201 200 199 200 201 203 204 203 207 208 204 204 208 210 209 208 208 206 207 209 210 212 213 213 212 214 213 212 213 214 216 218 221 225 226 230
270 272 272 272 269 267 269 271 270 265 263 261 261 261 258 256 254 252 249 245 243 240 239 237 235 232 231 231 228 227 227 226 224 220 216 213 210 209 208 207 208 208 209 209 206 203 202 201 201 203 204 203 203 203 204 207 205 206 207 206 207 209 210 210 209 210 210 209 212 214 214 215 215 215 216 216 216 217 218 220 222 224 228 229 232
269 272 271 271 269 268 267 268 269 264 263 262 261 260 256 256 257 253 248 244 241 239 237 236 235 233 232 233 232 230 226 224 224 221 218 216 213 211 211 210 210 211 212 213 210 207 205 203 202 204 206 207 207 204 204 207 208 208 208 208 210 211 210 210 209 210 212 212 213 215 217 218 217 217 218 218 218 219 220 222 224 227 230 232 235
269 272 270 269 270 272 270 268 267 264 263 263 261 260 258 257 257 254 249 242 240 239 237 236 236 235 234 234 234 233 228 225 224 221 218 217 215 213 214 213 213 212 213 216 214 210 208 206 204 204 207 210 208 204 205 207 210 211 211 212 213 212 212 212 211 211 212 214 214 217 219 219 219 219 219 220 221 221 222 224 226 229 232 234 237
267 270 269 269 270 271 271 269 266 264 265 267 264 262 261 258 254 253 248 242 240 238 237 236 235 237 236 233 233 234 232 230 226 222 220 219 216 216 218 218 216 215 215 217 215 212 211 210 210 209 208 210 209 207 209 210 211 213 214 216 215 215 215 213 213 213 214 215 216 218 220 220 220 220 220 221 222 222 224 225 227 230 233 235 239
264 266 267 269 270 268 269 267 266 265 264 267 267 263 263 259 255 252 247 243 241 238 237 235 235 238 237 235 235 235 235 232 225 222 221 221 220 220 221 221 219 218 218 218 216 213 213 213 215 215 212 211 210 210 212 212 214 215 216 218 218 218 217 215 216 216 216 217 218 220 221 221 221 221 222 222 223 224 225 227 228 230 233 236 240
262 264 266 267 268 267 268 266 266 267 264 265 267 264 263 262 260 256 250 246 242 239 238 236 236 238 238 237 237 235 234 232 226 221 219 221 222 222 223 223 221 222 219 218 217 214 214 213 214 217 216 215 214 213 215 216 217 217 218 220 221 221 221 220 220 219 218 218 218 220 221 221 222 223 223 223 224 225 227 228 229 232 235 237 241
261 263 264 265 267 267 268 267 263 264 265 264 265 265 263 262 260 256 252 248 244 240 240 240 240 239 239 239 237 234 233 231 228 222 220 222 224 223 225 224 221 223 221 217 218 217 216 214 213 215 217 220 219 216 217 219 219 219 220 222 223 224 224 224 223 222 221 220 220 221 222 223 224 225 224 224 225 226 228 229 231 234 237 239 241
259 261 263 263 265 266 267 268 263 262 266 265 264 264 264 261 257 255 253 248 245 243 242 242 242 242 240 240 238 234 233 231 230 228 225 226 226 226 226 224 221 223 222 217 217 219 220 218 216 216 218 221 223 221 221 222 222 222 223 223 224 226 226 225 226 226 224 223 222 224 226 227 227 227 227 227 227 228 229 232 234 236 238 241 243
258 260 263 262 262 265 266 268 265 263 264 265 266 264 263 262 256 256 254 249 246 244 243 242 243 243 241 241 239 236 235 234 234 234 231 229 229 228 227 227 225 222 220 217 217 219 222 222 220 219 219 221 223 224 226 226 225 225 226 226 226 227 228 228 228 228 228 226 225 227 228 229 230 230 230 230 230 230 232 234 236 238 239 242 245
258 260 261 262 262 265 266 267 267 265 264 264 266 263 262 262 258 257 254 248 246 244 244 243 242 243 242 242 240 238 238 237 236 236 236 234 232 230 228 229 227 222 219 218 219 220 222 223 222 222 222 223 224 226 230 230 229 229 229 229 228 228 228 230 231 230 230 230 229 229 229 231 233 233 232 232 233 234 235 235 238 240 241 243 245
255 257 258 261 262 263 265 266 267 267 266 265 265 262 261 261 259 256 252 248 246 244 244 243 241 242 243 242 239 240 241 239 236 236 239 238 235 232 231 232 230 227 224 221 221 222 224 225 225 225 225 225 227 228 230 232 232 232 232 231 231 230 230 232 232 232 233 233 232 232 232 233 233 234 235 235 235 236 237 237 238 241 242 243 245
253 255 257 259 260 263 264 264 266 266 266 265 264 261 259 258 258 255 250 247 245 245 245 243 240 240 242 240 238 242 243 240 237 237 240 239 237 235 235 237 236 236 233 228 227 225 227 231 230 228 227 227 228 228 230 232 233 234 233 234 234 233 233 233 233 233 234 234 234 234 234 234 233 235 238 238 237 237 238 239 240 241 242 244 246
253 254 256 257 259 261 263 264 265 265 265 263 261 260 258 257 256 254 251 247 245 246 246 244 241 240 241 239 240 243 243 240 238 239 240 240 240 240 239 239 239 241 242 240 238 233 232 234 233 231 231 230 230 230 231 231 232 233 232 234 236 236 235 235 235 234 235 235 235 235 236 235 235 236 238 238 239 239 240 240 241 242 243 244 246
253 254 255 256 258 260 262 263 264 264 264 262 258 257 256 254 253 251 251 248 246 248 248 245 244 243 242 241 242 244 243 242 241 240 241 242 242 243 243 242 243 245 247 246 245 242 240 239 237 235 234 233 233 234 234 233 235 235 232 233 236 237 237 238 237 236 235 235 236 236 237 236 237 238 238 238 239 241 242 242 242 243 244 244 245
251 252 253 255 258 259 261 262 262 263 263 260 256 254 252 252 252 250 250 248 247 250 248 246 246 246 245 245 244 244 243 245 245 244 244 244 246 247 247 247 248 249 250 249 247 246 245 244 240 237 236 236 236 237 239 238 239 239 235 234 236 238 238 239 239 238 238 237 236 237 238 238 239 239 239 239 240 242 242 243 244 244 245 245 245
250 251 252 254 256 257 258 260 260 260 261 259 256 253 251 251 252 252 251 249 249 251 249 249 250 248 248 249 248 246 245 246 247 247 247 248 249 250 251 252 252 253 252 250 250 249 247 245 241 238 238 239 238 238 240 241 241 242 238 236 238 239 238 239 239 240 240 239 238 238 239 239 239 239 240 241 242 241 241 242 243 244 246 245 245
249 250 251 253 254 255 256 257 258 258 259 259 256 254 254 253 253 254 253 251 252 251 249 252 254 252 252 251 250 250 248 248 248 249 249 250 251 252 253 254 254 256 255 253 252 251 249 247 243 241 240 240 240 239 240 242 242 243 241 240 242 240 238 239 240 241 241 240 239 239 240 241 240 240 240 240 240 240 241 241 242 244 247 246 245
248 248 249 252 253 254 254 255 256 256 256 256 254 254 255 254 253 255 256 252 254 254 251 254 256 254 253 253 252 252 251 251 251 250 251 251 252 253 254 255 255 256 256 255 253 252 251 249 245 244 242 241 241 240 240 241 241 242 243 244 245 242 239 240 240 241 241 241 240 241 241 242 242 242 241 241 241 242 242 242 243 245 247 246 246
247 247 248 250 251 253 252 253 254 254 254 252 250 251 252 253 253 255 257 253 254 257 256 258 261 257 253 253 253 253 254 254 254 253 253 253 253 253 254 255 256 256 256 256 255 254 253 250 247 246 244 242 241 241 240 240 242 244 245 245 245 243 241 240 241 241 241 242 241 242 242 242 243 242 242 243 243 243 243 242 242 245 246 246 247
247 246 248 249 250 251 250 251 252 252 251 249 248 249 250 252 253 254 256 254 252 254 256 259 264 263 257 253 253 255 257 256 255 254 254 254 255 254 255 256 256 256 256 256 256 255 254 252 249 246 245 243 241 241 240 240 242 244 245 245 245 243 242 242 241 241 241 242 241 242 243 243 243 243 244 245 245 244 244 243 243 244 245 246 247
246 245 246 248 248 247 247 248 250 249 248 247 246 247 249 250 252 253 254 252 249 252 257 262 265 265 262 258 257 258 258 257 257 256 255 255 256 256 256 256 256 256 256 257 256 256 255 253 251 248 247 245 242 241 242 242 242 243 243 244 244 244 245 246 244 242 241 242 242 243 244 244 244 244 245 245 245 245 245 245 245 245 245 245 246
245 245 245 246 246 245 246 246 247 246 245 244 245 247 248 249 250 250 251 250 249 252 259 263 265 267 266 264 262 260 261 261 260 258 257 257 256 257 257 257 257 257 257 257 257 257 256 254 253 250 249 248 245 243 243 243 243 242 241 242 243 244 246 248 247 245 243 243 244 245 246 246 246 246 247 246 246 245 245 246 246 246 246 245 246
243 244 244 244 244 244 244 243 243 243 242 242 244 247 248 249 248 249 252 253 251 254 259 262 265 267 267 268 266 264 263 262 261 261 261 260 259 259 258 258 257 257 257 258 257 257 256 255 254 252 251 249 247 245 244 244 244 243 242 242 243 244 245 246 249 250 248 246 245 246 247 247 248 248 248 248 247 246 246 246 246 246 246 246 246
241 242 242 243 243 243 243 241 241 242 242 243 245 248 249 248 250 252 254 253 252 255 259 261 264 266 267 268 268 267 265 262 262 263 263 263 262 262 261 260 259 258 258 258 258 258 257 256 256 254 252 250 248 247 246 245 245 244 244 243 242 243 245 246 248 251 252 250 248 248 248 248 249 249 249 249 249 248 247 246 246 246 246 246 247
240 240 241 242 242 242 241 239 241 242 243 244 247 249 249 248 250 253 253 253 254 257 258 258 261 264 266 268 268 268 267 265 265 264 264 265 265 264 264 263 261 260 259 258 258 258 258 257 257 256 254 252 250 249 248 247 246 246 245 244 243 244 245 247 248 249 251 252 251 250 250 250 250 251 250 249 249 249 248 248 247 246 246 247 248
240 240 242 242 241 241 240 239 240 242 243 245 248 250 250 250 252 253 253 253 255 257 257 257 261 263 264 265 267 267 267 266 266 266 266 267 267 268 268 266 265 264 263 261 260 259 259 258 258 257 256 254 253 251 250 249 248 247 247 245 244 244 245 247 249 249 248 250 251 251 252 252 254 254 252 250 250 248 248 248 247 246 247 247 248
240 241 242 242 240 239 239 240 241 242 244 246 249 251 252 253 254 254 254 255 256 257 258 258 259 262 262 263 265 266 266 267 268 268 268 268 268 269 270 269 268 267 266 264 263 261 260 260 259 258 257 256 255 254 252 250 249 248 248 247 246 245 246 247 248 248 248 249 250 251 252 255 258 259 255 252 251 249 247 247 246 247 248 248 249